Find Kondor-FKA No. 2

NORAD ID: 62138 Int'l Des: 2024-223 Owner: NPOMA Country: RU operational
LEOCIRCULARRETROGRADESSO

当前视图

正在加载3D地球...

关于 Kondor-FKA No. 2

正在加载描述...

即将过境

Passes for default location (London). Set your location on the main map for personalized predictions.

高度历史

Loading altitude history...

两行轨道根数

1 62138U 24223A 26149.80844527 .00004258 00000-0 20258-3 0 9992
2 62138 97.4372 353.5137 0001774 105.5896 254.5534 15.19703834 82913
Epoch: May 29, 2026 • Age: 10 hours

当前状态

高度 514.9 km
速度 7.61 km/s
星下点 -20.86°S, 163.13°W
发射日期 Nov 29, 2024
运行时间 1.4 years
类型 other

技术详情

分类 Payload
质量 1050.00 kg
干质量 1050.00 kg
总质量 1050.00 kg
长度 2.50 m
直径 0.80 m
跨度 5.00 m
形状 Box+2 pan+dish
制造商 NPOMA
平台类型 Kondor
阶段状态 In Orbit
所有者/国家 NPOMA/RU

Most Searched